Flag for Germany Weather past 2 weeks in Dachau, Bavaria, Germany

Now
55 °F

Clear.


Feels Like: 55 °F
Forecast: 51 / 59 °F
Wind: 1 mph from North

Location: Munich / Franz Josef Strauss Airport

Current Time: Aug 31, 2014 at 3:26:10 AM

Latest Report: Aug 31, 2014 at 2:50 AM


Visibility: 10 mi

Pressure: 30.04 "Hg

Humidity: 94%

Dew point: 54 °F

Location of DachauLocation

Historic Weather in Dachau — Graph

°F

Dachau temperature yesterday

Maximum temperature yesterday: 73 °F (at 5:50 PM)
Minimum temperature yesterday: 59 °F (at 10:20 PM)
Average temperature yesterday: 65 °F

Past Weeks' High & Low Weather Summary

 TemperatureHumidityPressure
High73 °F (Aug 30, 5:50 PM)100% (Aug 17, 4:50 AM)30.15 "Hg (Aug 17, 4:50 AM)
Low43 °F (Aug 25, 3:50 AM)37% (Aug 21, 4:20 PM)29.74 "Hg (Aug 26, 8:20 AM)
Average59 °F77%30.02 "Hg
* Reported Aug 16 1:20 AM — Aug 31 1:50 AM, Dachau, Weather by CustomWeather, © 2014

Note: Actual official high and low records may vary slightly from our data, if they occured in-between our weather recording intervals... More about our weather records

Advertising

Dachau weather history for previous 24 hours

 ConditionsComfort  
Time TempWeatherWind HumidityBarometerVisibility
1:50 AM
Aug 31
57 °FClear.3 mph94%30.07 "Hg10 mi
1:20 AM59 °FPartly cloudy.2 mph94%30.07 "HgN/A
12:50 AM57 °FPartly cloudy.2 mph100%30.07 "HgN/A
12:20 AM57 °FPassing clouds.1 mph94%30.07 "HgN/A
11:50 PM
Aug 30
59 °FPartly cloudy.2 mph88%30.07 "HgN/A
11:20 PM59 °FPassing clouds.1 mph88%30.07 "HgN/A
10:50 PM61 °FClear.2 mph88%30.07 "Hg10 mi
10:20 PM59 °FClear.2 mph88%30.09 "Hg10 mi
9:50 PM63 °FClear.1 mph83%30.09 "Hg10 mi
9:20 PM61 °FPassing clouds.7 mph83%30.09 "HgN/A
8:50 PM63 °FSunny.2 mph77%30.09 "Hg10 mi
8:20 PM64 °FPassing clouds.3 mph73%30.09 "HgN/A
7:20 PM68 °FPassing clouds.3 mph64%30.07 "HgN/A
6:50 PM70 °FPassing clouds.3 mph60%30.07 "HgN/A
6:20 PM72 °FPassing clouds.5 mph53%30.07 "HgN/A
5:50 PM73 °FPassing clouds.2 mph53%30.07 "HgN/A
5:20 PM72 °FScattered clouds.3 mph57%30.07 "HgN/A
4:50 PM72 °FScattered clouds.5 mph57%30.09 "HgN/A
4:20 PM70 °FBroken clouds.7 mph60%30.09 "HgN/A
3:50 PM72 °FBroken clouds.7 mph61%30.09 "HgN/A
3:20 PM72 °FBroken clouds.6 mph61%30.09 "HgN/A
2:50 PM72 °FBroken clouds.3 mph61%30.09 "HgN/A
2:20 PM70 °FBroken clouds.5 mph69%30.12 "HgN/A
1:50 PM70 °FBroken clouds.5 mph60%30.12 "HgN/A
1:20 PM68 °FBroken clouds.3 mph69%30.12 "HgN/A
12:50 PM68 °FBroken clouds.3 mph73%30.12 "HgN/A
12:20 PM68 °FMild.5 mph78%30.12 "HgN/A
11:50 AM66 °FBroken clouds.5 mph78%30.12 "HgN/A
11:20 AM66 °FScattered clouds.6 mph83%30.12 "HgN/A
10:50 AM64 °FPartly sunny.7 mph83%30.15 "HgN/A
10:20 AM64 °FMild.5 mph83%30.12 "HgN/A
9:50 AM64 °FPartly sunny.5 mph88%30.12 "HgN/A
9:20 AM63 °FScattered clouds.5 mph94%30.12 "HgN/A
8:50 AM63 °FPartly sunny.7 mph94%30.12 "HgN/A
8:20 AM63 °FPartly sunny.5 mph94%30.12 "HgN/A
7:50 AM61 °FPartly sunny.5 mph94%30.12 "HgN/A
7:20 AM61 °FPassing clouds.6 mph100%30.09 "Hg4 mi
6:50 AM63 °FPassing clouds.5 mph94%30.09 "Hg4 mi
6:20 AM63 °FPassing clouds.5 mph94%30.09 "Hg4 mi
5:50 AM61 °FPartly cloudy.5 mph100%30.09 "Hg5 mi
5:20 AM61 °FPartly cloudy.6 mph100%30.09 "Hg5 mi
4:50 AM61 °FPartly cloudy.3 mph94%30.09 "HgN/A
4:20 AM61 °FPartly cloudy.5 mph100%30.09 "HgN/A
3:50 AM61 °FPassing clouds.6 mph100%30.09 "HgN/A
3:20 AM61 °FLight rain. Low clouds.3 mph100%30.09 "HgN/A
Weather by CustomWeather, © 2014

See weather overviewHow to use our weather pages